Location: アルンシュタイン
(50.0000°N, 10.0000°E)
Time: 15:03:39
(UTC+02:00)

Vanguard 1 - Pass Details

Date: 12 September 2024
Orbit: 649 x 3825 km, 34.3° (Epoch: 02 October)

Event Time Altitude Azimuth Distance (km) Brightness Sun altitude
Rises 16:43:03 0° 243° (WSW) 4,375 14.7 26.6°
Reaches altitude 10° 16:47:35 10° 225° (SW) 2,879 14.0 26.0°
Maximum altitude 16:51:30 17° 188° (S) 2,055 12.4 25.4°
Drops below altitude 10° 16:54:40 10° 148° (SSE) 2,239 11.9 25.0°
Sets 16:57:33 0° 126° (SE) 3,007 12.3 24.6°
